This is the latest recevied weather packets stored in our database for station/object W9PEM-13. If no packets are shown the sender has not sent any weather packets the latest 1 day(s).
| Time | Temp. | Humidity | Pressure | Rain* | Wind** | Luminosity | Snow |
|---|---|---|---|---|---|---|---|
| 1778044881 | 2.22° C | 78% | 981.1 hPa | 0 mm | 0.45 m/s, 75° | 0 W/m² | - |
| 1778043683 | 3.33° C | 74% | 980.9 hPa | 0 mm | 0 m/s | 0 W/m² | - |
| 1778043078 | 3.89° C | 71% | 980.9 hPa | 0 mm | 0 m/s | 0 W/m² | - |
| 1778042349 | 4.44° C | 64% | 980.9 hPa | 0 mm | 1.34 m/s, 279° | 0 W/m² | - |
| 1778041943 | 4.44° C | 68% | 980.7 hPa | 0 mm | 0.45 m/s, 274° | 0 W/m² | - |
| 1778041749 | 4.44° C | 68% | 980.7 hPa | 0 mm | 0.45 m/s, 274° | 0 W/m² | - |
| 1778037058 | 6.11° C | 58% | 980.4 hPa | 0 mm | 0 m/s | 0 W/m² | - |
| 1778036949 | 6.11° C | 58% | 980.4 hPa | 0 mm | 0 m/s | 0 W/m² | - |
| 1778036037 | 6.67° C | 54% | 980.4 hPa | 0 mm | 0.45 m/s, 0° | 0 W/m² | - |
| 1778034323 | 7.78° C | 51% | 980 hPa | 0 mm | 0.45 m/s, 154° | 0 W/m² | - |
| 1778034213 | 7.78° C | 51% | 980 hPa | 0 mm | 0.45 m/s, 154° | 0 W/m² | - |
| 1778033719 | 7.78° C | 48% | 979.9 hPa | 0 mm | 0.89 m/s, 105° | 0 W/m² | - |
| 1778033614 | 7.78° C | 48% | 979.9 hPa | 0 mm | 0.89 m/s, 105° | 0 W/m² | - |
| 1778033348 | 8.33° C | 48% | 979.8 hPa | 0 mm | 0.89 m/s, 127° | 0 W/m² | - |
| 1778033013 | 8.33° C | 48% | 979.8 hPa | 0 mm | 0.89 m/s, 127° | 0 W/m² | - |
| 1778032881 | 8.33° C | 48% | 979.6 hPa | 0 mm | 0.45 m/s, 248° | 0 W/m² | - |
| 1778032413 | 8.33° C | 48% | 979.6 hPa | 0 mm | 0.45 m/s, 248° | 0 W/m² | - |
| 1778032244 | 8.89° C | 47% | 979.3 hPa | 0 mm | 0.89 m/s, 104° | 0 W/m² | - |
| 1778031813 | 8.89° C | 47% | 979.3 hPa | 0 mm | 0.89 m/s, 104° | 0 W/m² | - |
| 1778031389 | 8.89° C | 47% | 979 hPa | 0 mm | 1.34 m/s, 58° | 0 W/m² | - |
| 1778031214 | 8.89° C | 47% | 979 hPa | 0 mm | 1.34 m/s, 58° | 0 W/m² | - |
| 1778030937 | 9.44° C | 46% | 978.8 hPa | 0 mm | 0.89 m/s, 77° | 0 W/m² | - |
| 1778030848 | 9.44° C | 46% | 978.8 hPa | 0 mm | 0.89 m/s, 77° | 0 W/m² | - |
| 1778030613 | 9.44° C | 46% | 978.8 hPa | 0 mm | 0.89 m/s, 77° | 0 W/m² | - |
| 1778030337 | 10° C | 43% | 978.8 hPa | 0 mm | 0.89 m/s, 88° | 0 W/m² | - |
* Rain latest hour (hover to see other rain measurements)
** Current wind speed in m/s (hover to see current wind gust speed)